Location: Stockholm
(59.3293°N, 18.0686°E)
Time: 13:50:47
(UTC+02:00)

ISS - Pass Details

Date: 26 March 2019
Orbit: 408 x 410 km, 51.6° (Epoch: 24 April)

Event Time Altitude Azimuth Distance (km) Brightness Sun altitude
Rises 21:00:24 0° 250° (WSW) 2,337 0.4 -19.6°
Reaches altitude 10° 21:02:46 10° 234° (SW) 1,475 -0.9 -19.9°
Enters shadow 21:03:36 15° 224° (SW) 1,229 -1.4 -19.9°
